Other Surface Observations
Issued by NWS

Home | Current Version | Previous Version | Text Only | Print | Product List | Glossary On
Versions: 1 2 3 4 5 6 7 8 9 10 11 12 13 14 15 16 17 18 19 20 21 22 23 24 25 26 27 28 29 30 31 32 33 34 35 36 37 38 39 40 41 42 43 44 45 46 47 48 49 50
000
SXUS52 KTAE 240719
OSOTAE
OSOTAE
North Florida/South Alabama/Southwest Georgia Weather Roundup
National Weather Service Tallahassee Florida
300 AM EDT SUN JUL 24 2016

Note: "fair" indicates few or no clouds below 12,000 feet with no
significant weather and/or obstructions to visibility.

!FLZ017-115-028-034-025-240800
...North Florida...

CITY           SKY/WX    TMP DP  RH WIND       PRES   REMARKS
TALLAHASSEE    PTCLDY    78  75  90 CALM        N/A
APALACHICOLA   PTCLDY    81  77  88 CALM      29.99F
PERRY          CLOUDY    77  75  92 CALM      30.01F
CROSS CITY       N/A     77  73  87 E3        30.00F
JACKSONVILLE   PTCLDY    76  73  91 SW3       30.01F
$$

!FLZ112-006-005-002-011-240800
...Florida Panhandle...

CITY           SKY/WX    TMP DP  RH WIND       PRES   REMARKS
MARIANNA       PTCLDY    76  74  93 CALM      29.99F
BONIFAY        FAIR      79  72  79 CALM      30.00F
PANAMA CITY NW FAIR      78  76  93 CALM      29.98F
TYNDALL AFB    MOCLDY    79  76  90 E3        29.98F
TYND DRONE APT NOT AVBL
DE FUNIAK SPR  FAIR      76  74  96 CALM      30.00F
EGLIN AFB      MOCLDY    78  73  84 NW2       29.98F
DESTIN         PTCLDY    82  78  88 CALM      29.97F HX  91
HURLBURT       PTCLDY    76  74  93 N2        29.97F
CRESTVIEW      PTCLDY    74  72  93 CALM      30.00F
PENSACOLA      PTCLDY    80  74  81 CALM      29.98F
$$

!ALZ063-066-240800
...South Alabama...

CITY           SKY/WX    TMP DP  RH WIND       PRES   REMARKS
DOTHAN         PTCLDY    76  73  91 CALM      30.04S
OZARK CAIRNS   PTCLDY    75  74  96 CALM      30.00S
FT RUCKER HELI PTCLDY    75  72  90 CALM      29.99F
RUCKER HELI 3  FAIR      76  73  90 CALM      30.02S
RUCKER HELI 2  FAIR      77  72  84 CALM      30.00F
FLORALA APT    PTCLDY    75  73  93 CALM      30.01F
ANDALUSIA      PTCLDY    79  74  84 E3        29.99F
TROY           PTCLDY    74  74 100 CALM      30.01F
EUFALA         FAIR      77  74  90 CALM      30.00S
MOBILE         CLEAR     79  74  84 CALM      29.98F
$$

!GAZ120>161-240800
...Southwest and South Central Georgia...

CITY           SKY/WX    TMP DP  RH WIND       PRES   REMARKS
THOMASVILLE      N/A     77  77 100 SE7       30.03S
BAINBRIDGE     MOCLDY    77  73  88 CALM      30.00F
MOODY AFB      MOCLDY    77  72  84 S3        30.01F
VALDOSTA       MOCLDY    76  73  91 S5        30.01F
MOULTRIE       PTCLDY    77  73  88 CALM      30.03S
BLAKELY        PTCLDY    77  73  88 CALM      30.01F
ALBANY         CLOUDY    78  73  84 CALM      30.03S
TIFTON         FAIR      78  72  82 CALM      30.02S
FITZGERALD     FAIR      79  76  93 CALM      30.05S
CORDELE        FAIR      80  75  85 CALM      30.03S
AMERICUS       FAIR      77  73  88 CALM      30.04S
HOMERVILLE     FAIR      77  73  88 CALM      30.02F
$$

!GMZ750-755-770-775-240800
...Coastal and Buoy Obs...

STATION/POSITION TIME  TEMP    WIND        PRES    VSBY  WAVE
                       AIR SEA DIR/SP/G                  HT/PER
                 (UTC) (F)     (DEG/KT/KT) (MB)    (MI)  (FT/S)
KEATON BEACH     0700   78      60/  2/  3 1015.3F
CEDAR KEY        0700   78     230/  6/  8 1017.1R
C TOWER          0700   83     120/  7/  8 1016.0F
APALACHICOLA BUO 0650   84 88  210/  8/ 10 1015.7F         2/ 4
PANAMA CITY BUOY 0650   84 88  230/  4/  6 1015.5F         1/ 5
MOBILE BUOY      0700   84 87  190/  4/  6 1014.8F
ORANGE BCH AL BU 0650   84 89  210/  2/  4 1015.3F         1
$$




USA.gov is the U.S. government's official web portal to all federal, state and local government web resources and services.